Flag for Malta Weather past 2 weeks in Valletta, Malta

Now
82 °F

Passing clouds.


Feels Like: 83 °F
Forecast: 72 / 85 °F
Wind: 3 mph from North

Location: Luqa

Current Time: Jul 5, 2015 at 9:57:30 AM

Latest Report: Jul 5, 2015 at 9:15 AM


Visibility: N/A

Pressure: 30.12 "Hg

Humidity: 51%

Dew point: 63 °F

Location of VallettaLocation

Historic Weather in Valletta — Graph

°F

Valletta temperature yesterday

Maximum temperature yesterday: 88 °F (at 1:15 PM)
Minimum temperature yesterday: 70 °F (at 4:15 AM)
Average temperature yesterday: 79 °F

Past Weeks' High & Low Weather Summary

 TemperatureHumidityPressure
High88 °F (Jul 4, 1:15 PM)100% (Jun 25, 5:15 AM)30.21 "Hg (Jun 25, 5:15 AM)
Low66 °F (Jun 28, 5:15 AM)31% (Jun 27, 12:45 PM)29.89 "Hg (Jun 20, 5:15 PM)
Average75 °F70%30.05 "Hg
* Reported Jun 20 8:15 AM — Jul 5 8:45 AM, Valletta, Weather by CustomWeather, © 2015

Note: Actual official high and low records may vary slightly from our data, if they occured in-between our weather recording intervals... More about our weather records

Advertising

Valletta weather history for previous 24 hours

 ConditionsComfort  
Time TempWeatherWind HumidityBarometerVisibility
8:45 AM
Sun, Jul 5
82 °FSunny.2 mph51%30.12 "Hg10 mi
8:15 AM79 °FSunny.2 mph61%30.09 "Hg10 mi
7:45 AM77 °FSunny.2 mph69%30.09 "Hg10 mi
7:15 AM73 °FSunny.2 mph83%30.09 "Hg10 mi
6:45 AM72 °FClear.3 mph88%30.09 "Hg10 mi
6:15 AM72 °FClear.5 mph88%30.09 "Hg10 mi
5:45 AM72 °FClear.3 mph88%30.09 "Hg10 mi
4:45 AM72 °FMild.5 mph88%30.09 "Hg4 mi
4:15 AM72 °FClear.5 mph88%30.09 "Hg10 mi
3:45 AM73 °FClear.6 mph74%30.09 "Hg10 mi
3:15 AM72 °FClear.5 mph61%30.09 "Hg10 mi
2:45 AM70 °FClear.3 mph73%30.09 "Hg10 mi
2:15 AM72 °FClear.2 mph78%30.09 "Hg10 mi
1:45 AM73 °FClear.3 mph78%30.12 "Hg10 mi
1:15 AM73 °FClear.2 mph78%30.12 "Hg10 mi
12:45 AM73 °FClear.3 mph83%30.12 "Hg10 mi
12:15 AM73 °FClear.2 mph78%30.12 "Hg10 mi
11:45 PM
Sat, Jul 4
73 °FClear.2 mph78%30.12 "Hg10 mi
11:15 PM73 °FClear.1 mph78%30.12 "Hg10 mi
10:45 PM75 °FClear.2 mph74%30.12 "Hg10 mi
10:15 PM75 °FClear.3 mph78%30.12 "Hg10 mi
9:45 PM75 °FClear.2 mph78%30.12 "Hg10 mi
9:15 PM75 °FSunny.5 mph74%30.12 "Hg10 mi
8:45 PM77 °FSunny.6 mph65%30.12 "Hg10 mi
8:15 PM79 °FPassing clouds.6 mph54%30.12 "HgN/A
7:45 PM81 °FPassing clouds.8 mph51%30.12 "HgN/A
7:15 PM82 °FSunny.8 mph45%30.12 "Hg10 mi
6:45 PM82 °FPassing clouds.8 mph48%30.12 "HgN/A
6:15 PM84 °FPassing clouds.7 mph48%30.12 "HgN/A
5:45 PM84 °FPassing clouds.9 mph45%30.12 "HgN/A
5:15 PM84 °FPassing clouds.7 mph48%30.12 "HgN/A
4:45 PM84 °FPassing clouds.9 mph51%30.12 "HgN/A
4:15 PM84 °FPassing clouds.9 mph55%30.12 "HgN/A
3:45 PM84 °FPassing clouds.9 mph51%30.12 "HgN/A
3:15 PM84 °FPassing clouds.12 mph48%30.12 "HgN/A
2:45 PM86 °FPassing clouds.10 mph43%30.15 "HgN/A
2:15 PM86 °FPassing clouds.9 mph38%30.15 "HgN/A
1:45 PM88 °FPassing clouds.9 mph35%30.15 "HgN/A
1:15 PM88 °FPassing clouds.8 mph35%30.15 "HgN/A
12:45 PM86 °FPassing clouds.7 mph40%30.15 "HgN/A
12:15 PM86 °FPassing clouds.8 mph40%30.15 "HgN/A
11:45 AM86 °FPassing clouds.8 mph40%30.15 "HgN/A
11:15 AM86 °FPassing clouds.7 mph43%30.15 "HgN/A
10:45 AM86 °FPassing clouds.3 mph31%30.15 "HgN/A
10:15 AM86 °FSunny.2 mph31%30.15 "Hg10 mi
9:45 AM84 °FPassing clouds.3 mph37%30.15 "HgN/A
9:15 AM84 °FPassing clouds.3 mph37%30.15 "HgN/A
Weather by CustomWeather, © 2015

See weather overviewHow to use our weather pages